Regional Weather Roundup
Issued by NWS

Home | Current Version | Previous Version | Text Only | Print | Product List | Glossary Off
Versions: 1 2 3 4 5 6 7 8 9 10 11 12 13 14 15 16 17 18 19 20 21 22 23 24 25 26 27 28 29 30 31 32 33 34 35 36 37 38 39 40 41 42 43 44 45 46 47 48 49 50

000
ASUS45 KCYS 281810
RWRWY

WYOMING REGIONAL WEATHER ROUNDUP
NATIONAL WEATHER SERVICE CHEYENNE WY
1100 AM MST FRI NOV 28 2014

NOTE:  "FAIR" INDICATES FEW OR NO CLOUDS BELOW 12,000 FEET
WITH NO SIGNIFICANT WEATHER AND/OR OBSTRUCTIONS TO VISIBILITY.

WYZ001-281900-
YELLOWSTONE NATIONAL PARK

CITY           SKY/WX    TMP DP  RH WIND       PRES   REMARKS
LK YELLOWSTONE   N/A     38  18  44 W12G30    29.90S WCI  30
6HR MIN TEMP:  37; 6HR MAX TEMP:  38;

W YELLOWSTONE  NOT AVBL

$$
WYZ002>013-054>058-071-098>099-281900-
NORTHERN WYOMING

CITY           SKY/WX    TMP DP  RH WIND       PRES   REMARKS
JACKSON        CLOUDY    43  23  45 SW8       29.94S
CODY           PTSUNNY   57  16  19 W28G48    29.63F
GREYBULL       PTSUNNY   37  29  72 SE6       29.74F WCI  32
6HR MIN TEMP:  29; 6HR MAX TEMP:  37;

WORLAND        PTSUNNY   34  26  72 CALM      29.75F
6HR MIN TEMP:  25; 6HR MAX TEMP:  34;

SHERIDAN       MOSUNNY   59  22  24 W18G38    29.64F
6HR MIN TEMP:  43; 6HR MAX TEMP:  62;

BUFFALO        PTSUNNY   58  19  22 SW7       29.69F
6HR MIN TEMP:  46; 6HR MAX TEMP:  59;

GILLETTE       PTSUNNY   55  27  34 SW18G24   29.67F
6HR MIN TEMP:  45; 6HR MAX TEMP:  55;

HULETT           N/A    N/A N/A N/A MISG        N/A
NEWCASTLE      FAIR      52  27  37 SE6       29.74F

$$
WYZ014>020-022>026-101>103-281900-
CENTRAL WYOMING

CITY           SKY/WX    TMP DP  RH WIND       PRES   REMARKS
BIG PINEY      PTSUNNY   38  26  62 E6        30.00F WCI  33
PINEDALE       CLOUDY    37  27  65 SE7       30.01F WCI  32
DUBOIS         FAIR      43  18  36 W22G30    29.89F
LANDER         PTSUNNY   60  12  15 N12       29.84F
6HR MIN TEMP:  47; 6HR MAX TEMP:  60; 6HR PCP: TRACE;

RIVERTON       PTSUNNY   51  18  27 W23       29.82F
6HR MIN TEMP:  36; 6HR MAX TEMP:  52;

CASPER         CLOUDY    50  19  29 SW16G31   29.83S
6HR MIN TEMP:  40; 6HR MAX TEMP:  50;

DOUGLAS        CLOUDY    59  19  21 W25G33    29.80F
6HR MIN TEMP:  44; 6HR MAX TEMP:  59;


$$
WYZ021-027>030-104>119-281900-
SOUTHERN WYOMING

CITY           SKY/WX    TMP DP  RH WIND       PRES   REMARKS
EVANSTON       PTSUNNY   46  19  34 SW17      30.04S
6HR MIN TEMP:  37; 6HR MAX TEMP:  46;

FORT BRIDGER   FAIR      52  19  26 W16       30.04F
ROCK SPRINGS   PTSUNNY   47  23  38 CALM      30.03F
6HR MIN TEMP:  33; 6HR MAX TEMP:  48;

DIXON          FAIR      51  15  23 S15G22    30.10F
RAWLINS        PTSUNNY   51  15  23 W21G30    30.00F
6HR MIN TEMP:  42; 6HR MAX TEMP:  52;

SARATOGA       FAIR      50  14  23 S9        30.05S
LARAMIE        CLOUDY    49  12  22 SW15      29.99F
6HR MIN TEMP:  36; 6HR MAX TEMP:  49;

CHEYENNE       CLOUDY    56  11  16 W15G25    29.91F
6HR MIN TEMP:  45; 6HR MAX TEMP:  56;

TORRINGTON     CLOUDY    60  19  20 W10       29.79F
6HR MIN TEMP:  49; 6HR MAX TEMP:  61;

PINE BLUFFS    FAIR      63  14  15 W21       29.88F

$$


USA.gov is the U.S. government's official web portal to all federal, state and local government web resources and services.